Location: Gajan
(43.0218°N, 1.1244°E)
Time: 02:53:18
(UTC+00:00)

Cosmos 1766 Rocket - Pass Details

Date: 22 April 2021
Orbit: 605 x 633 km, 82.5° (Epoch: 15 May)

Event Time Altitude Azimuth Distance (km) Brightness Sun altitude
Rises 20:29:30 0° 360° (N) 2,871 7.5 -17.5°
Reaches altitude 10° 20:31:52 10° 9° (N) 1,964 6.5 -17.8°
Maximum altitude 20:35:52 35° 76° (ENE) 985 4.3 -18.4°
Enters shadow 20:36:22 34° 92° (E) 1,007 4.2 -18.5°
